x

East Santa Barbara - 12nm Southwest Of Santa Barbara, Ca (46053) Wave Buoy

7:50am - Wed 23rd Aug 2017 All times are PDT. -7 hours from GMT.

  • Sig Wave height 1.6ft
  • Swell Direction
  • Peak Period 5s
  • Average Period 4s
  • Wind
    9mph, 11mph gusts
  • Sea Temp 64°f
  • 空気 Temp 62°f
  • Sea Pressure 1015.8mb
  • East Santa Barbara  - 12nm Southwest Of Santa Barbara, Ca
  • East Santa Barbara  - 12nm Southwest Of Santa Barbara, Ca

More Historic Weather Station data

Upgrade to MSW Pro to gain access to the past 30 days of data for over 8000 Wavebouys and Weather Stations around the globe.

Join

Comparision Forecast

View Surf forecast
   
Wed 08/23 7:50am 1.6ft 5s 4s 9 11 mph 1015.8mb 64f 62f
7:40am  -   -   -  11 13 mph 1015.7mb 64f 62f
7:30am  -   -   -  11 16 mph 1015.7mb 64f 62f
7:20am  -   -   -  11 13 mph 1015.6mb 64f 62f
7:10am  -   -   -  11 16 mph 1015.6mb 64f 62f
7:00am  -   -   -  11 13 mph 1015.5mb 64f 63f
6:50am 1.6ft 5s 4s 11 13 mph 1015.5mb 64f 63f
6:40am 1.6ft  -  4s 11 13 mph 1015.4mb 64f 63f
6:30am  -   -   -  11 13 mph 1015.3mb 64f 63f
6:20am  -   -   -  11 13 mph 1015.3mb 64f 63f
6:10am  -   -   -  11 16 mph 1015.3mb 64f 63f
6:00am  -   -   -  11 13 mph 1015.3mb 64f 63f
5:50am 1.6ft 5s 4s 11 13 mph 1015.3mb 64f 63f
5:40am 1.6ft  -  4s 9 11 mph 1015.3mb 64f 63f
5:30am  -   -   -  9 13 mph 1015.3mb 64f 63f
5:20am  -   -   -  11 13 mph 1015.1mb 64f 63f
5:10am  -   -   -  11 13 mph 1015.2mb 65f 63f
5:00am  -   -   -  13 16 mph 1015.1mb 65f 62f
4:50am  -   -   -  11 13 mph 1015mb 65f 62f
4:40am  -   -   -  11 13 mph 1015mb 65f 62f
4:30am  -   -   -   -  mph 1015mb 65f -
4:20am  -   -   -  13 16 mph 1015mb 65f 62f
4:10am  -   -   -  13 16 mph 1015mb 65f 62f
4:00am  -   -   -  16 18 mph 1015mb 65f 62f
3:50am 2.5ft 3s 4s 16 20 mph 1015mb 65f 62f
3:40am 2.5ft  -  4s 18 20 mph 1015mb 65f 62f
3:30am  -   -   -  18 20 mph 1015mb 65f 62f
3:20am  -   -   -  16 20 mph 1015.1mb 65f 63f
3:10am  -   -   -  16 20 mph 1015mb 65f 63f
3:00am  -   -   -  16 20 mph 1015.1mb 65f 63f
2:50am 2.5ft 3s 4s 18 20 mph 1015mb 65f 63f
2:40am  -   -   -  18 20 mph 1014.9mb 65f 63f
2:30am  -   -   -  18 22 mph 1014.8mb 65f 63f
2:20am  -   -   -  18 22 mph 1014.7mb 65f 63f
2:10am  -   -   -  18 22 mph 1014.6mb 65f 63f
2:00am  -   -   -  18 22 mph 1014.7mb 65f 63f
1:50am 2.5ft 5s 4s 18 22 mph 1014.7mb 65f 63f
1:40am  -   -   -  18 22 mph 1014.7mb 65f 63f
1:30am  -   -   -  18 20 mph 1014.7mb 65f 63f
1:20am  -   -   -  18 22 mph 1014.5mb - 63f
1:10am  -   -   -  18 25 mph 1014.5mb 65f 63f
1:00am  -   -   -  20 25 mph 1014.4mb 65f 63f
12:50am 3ft 5s 4s 18 22 mph 1014.4mb 65f 64f
12:40am  -   -   -  16 18 mph 1014.3mb 65f 64f
12:30am  -   -   -  16 20 mph 1014.4mb 65f 64f
12:20am  -   -   -  18 20 mph 1014.4mb 65f 64f
12:10am  -   -   -  18 20 mph 1014.3mb 65f 64f
12:00am  -   -   -  16 20 mph 1014.3mb 65f 64f
Tue 08/22 11:50pm 3.5ft 6s 4s 18 20 mph 1014.2mb 65f 64f
11:40pm 3.5ft  -  4s 18 22 mph 1014.1mb 65f 64f
11:30pm  -   -   -  18 20 mph 1014.1mb 65f 64f
11:20pm  -   -   -  18 22 mph 1014.1mb 65f 64f
11:10pm  -   -   -  18 20 mph 1014.2mb 65f 64f
11:00pm  -   -   -  18 20 mph 1014.3mb 65f 64f
10:50pm 3.5ft 6s 4s 16 20 mph 1014.3mb 65f 64f
10:40pm 3.5ft  -  4s 16 20 mph 1014.4mb 65f 64f
10:30pm  -   -   -  16 20 mph 1014.4mb 65f 64f
10:20pm  -   -   -  16 20 mph 1014.3mb 65f 64f
10:10pm  -   -   -  16 20 mph 1014.5mb 65f 64f
10:00pm  -   -   -  16 18 mph 1014.5mb - 64f
9:50pm 3.5ft 5s 4s 16 20 mph 1014.5mb 65f 64f
9:40pm  -   -   -  16 20 mph 1014.5mb 65f 64f
9:30pm  -   -   -  18 20 mph 1014.7mb 65f 64f
9:20pm  -   -   -  18 20 mph 1014.7mb 65f 64f
9:10pm  -   -   -  18 20 mph 1014.8mb 65f 64f
9:00pm  -   -   -  18 22 mph 1014.7mb 65f 64f
8:50pm 3.5ft 5s 4s 16 20 mph 1014.8mb 65f 64f
8:40pm 3.5ft  -  4s 18 20 mph 1014.6mb 65f 64f
8:30pm  -   -   -  18 22 mph 1014.6mb 65f 64f
8:20pm  -   -   -  18 22 mph 1014.5mb 65f 64f
8:10pm  -   -   -  18 22 mph 1014.4mb 65f 64f
8:00pm  -   -   -  20 25 mph 1014.4mb 65f 64f
7:50pm 4ft 6s 4s 20 22 mph 1014.2mb 66f 64f
7:40pm 4ft  -  4s 20 22 mph 1014.2mb 65f 64f
7:30pm  -   -   -  20 22 mph 1014.2mb 66f 64f
7:20pm  -   -   -  20 25 mph 1014.3mb 66f 64f
7:10pm  -   -   -  20 25 mph 1014.3mb 66f 64f
7:00pm  -   -   -  20 25 mph 1014.3mb 66f 64f
6:50pm 3.5ft 5s 4s 20 25 mph 1014.4mb 66f 64f
6:40pm 3.5ft  -  4s 20 25 mph 1014.5mb 66f 64f
6:30pm  -   -   -  20 25 mph 1014.5mb 66f 64f
6:20pm  -   -   -  18 25 mph 1014.6mb 66f 64f
6:10pm  -   -   -  20 22 mph 1014.6mb 66f 64f
6:00pm  -   -   -  20 22 mph 1014.8mb 66f 64f
5:50pm 3.5ft 4s 4s 20 22 mph 1015mb 66f 64f
5:40pm  -   -   -  20 25 mph 1015.1mb 66f 64f
5:30pm  -   -   -  20 25 mph 1015.2mb 66f 64f
5:20pm  -   -   -  20 25 mph 1015.3mb 66f 64f
5:10pm  -   -   -  20 25 mph 1015.4mb 66f 64f
5:00pm  -   -   -  20 25 mph 1015.5mb 67f 64f
4:50pm 3ft 4s 4s 18 22 mph 1015.5mb 67f 64f
4:40pm 3ft  -  4s 18 22 mph 1015.6mb 67f 64f
4:30pm  -   -   -  20 25 mph 1015.6mb 67f 64f
4:20pm  -   -   -  20 25 mph 1015.6mb 67f 64f
4:10pm  -   -   -  20 25 mph 1015.8mb 67f 65f
4:00pm  -   -   -  18 22 mph 1015.9mb 67f 65f
3:50pm 2.5ft 4s 4s 18 22 mph 1015.9mb 67f 65f
3:40pm  -   -   -  18 22 mph 1015.9mb 67f 65f
3:30pm  -   -   -  18 20 mph 1016mb - 65f
3:20pm  -   -   -  18 20 mph 1016.1mb 67f 65f
3:10pm  -   -   -  18 20 mph 1016.1mb 67f 65f
3:00pm  -   -   -  18 22 mph 1016.1mb 67f 65f
2:50pm 2ft 3s 3s 18 20 mph 1016.2mb 67f 65f
2:40pm 2ft  -  3s 16 20 mph 1016.3mb 67f 65f
2:30pm  -   -   -  18 20 mph 1016.4mb 67f 65f
2:20pm  -   -   -  16 20 mph 1016.4mb 67f 65f
2:10pm  -   -   -  16 18 mph 1016.4mb 67f 65f
2:00pm  -   -   -  16 18 mph 1016.5mb 67f 65f
1:50pm 1.6ft 3s 4s 16 18 mph 1016.6mb 67f 65f
1:40pm 1.6ft  -  4s 16 18 mph 1016.7mb 67f 65f
12:40pm  -   -   -  13 16 mph 1017.1mb 67f 65f
12:30pm  -   -   -  11 13 mph 1017.2mb 67f 65f
12:20pm  -   -   -  11 13 mph 1017.2mb 67f 65f
12:10pm  -   -   -  11 13 mph 1017.3mb 67f 65f
12:00pm  -   -   -  9 13 mph 1017.2mb 67f 65f
11:50am 1.3ft 10s 5s 9 11 mph 1017.3mb 67f 65f
11:40am 1.3ft  -  5s 9 9 mph 1017.5mb 67f 65f
11:30am  -   -   -  9 9 mph 1017.5mb 67f 65f
11:20am  -   -   -  7 9 mph 1017.6mb 67f 65f
11:10am  -   -   -  7 9 mph 1017.6mb 67f 65f
11:00am  -   -   -  7 9 mph 1017.5mb 67f 65f
10:50am 1.3ft 9s 5s 7 7 mph 1017.6mb 67f 65f
10:40am 1.3ft  -  5s 4 7 mph 1017.6mb 67f 65f
10:30am  -   -   -  4 4 mph 1017.6mb 66f 65f
10:20am  -   -   -  4 4 mph 1017.6mb 66f 65f
10:10am  -   -   -  4 7 mph 1017.6mb 66f 65f
10:00am  -   -   -  4 4 mph 1017.5mb 66f 65f
9:50am 1.3ft 10s 5s 4 4 mph 1017.5mb 66f 65f
9:40am  -   -   -  4 4 mph 1017.6mb 66f 65f
9:30am  -   -   -  2 4 mph 1017.6mb 66f 65f
9:20am  -   -   -  4 4 mph 1017.6mb 66f 64f
9:10am  -   -   -  4 4 mph 1017.5mb 66f 64f
9:00am  -   -   -  4 4 mph 1017.5mb 66f 64f
8:50am 1.3ft 10s 5s 4 7 mph 1017.5mb 66f 64f
8:40am 1.3ft  -  5s 4 7 mph 1017.4mb 66f 64f
8:30am  -   -   -  4 7 mph 1017.3mb 66f 64f
8:20am  -   -   -  7 9 mph 1017.2mb 66f 64f
8:10am  -   -   -  7 9 mph 1017.3mb 66f 64f
8:00am  -   -   -  7 9 mph 1017.2mb 66f 63f
7:50am 1.3ft 9s 4s 9 11 mph 1017.1mb 66f 63f
7:40am 1.3ft  -  4s 9 11 mph 1017.1mb 66f 63f
7:30am  -   -   -  11 13 mph 1017.1mb 66f 63f
7:20am  -   -   -  11 13 mph 1017mb 66f 63f
7:10am  -   -   -  11 13 mph 1016.9mb 66f 64f
7:00am  -   -   -  11 13 mph 1016.8mb 66f 64f
6:50am 1.3ft 9s 4s 11 11 mph 1016.7mb 66f 64f
6:40am 1.3ft  -  4s 11 11 mph 1016.6mb 66f 64f
6:30am  -   -   -  11 13 mph 1016.5mb 66f 64f
6:20am  -   -   -  11 11 mph 1016.4mb 66f 64f
6:10am  -   -   -  11 13 mph 1016.5mb 66f 64f
6:00am  -   -   -  9 11 mph 1016.4mb - 64f
5:50am 1.3ft 10s 4s 9 11 mph 1016.4mb 66f 65f
5:40am 1.3ft  -  4s 9 11 mph 1016.3mb 66f 64f
5:30am  -   -   -  9 11 mph 1016.2mb 66f 64f
5:20am  -   -   -  9 11 mph 1016.1mb 66f 64f
5:10am  -   -   -  9 11 mph 1016.1mb 66f 65f
5:00am  -   -   -  9 11 mph 1016mb 66f 65f
4:50am 1.3ft 9s 4s 9 11 mph 1016mb 66f 65f
4:40am 1.3ft  -  4s 9 11 mph 1015.9mb 66f 65f
4:30am  -   -   -  9 11 mph 1015.9mb 66f 64f
4:20am  -   -   -  9 11 mph 1015.9mb 66f 65f
4:10am  -   -   -  9 9 mph 1015.9mb 65f 64f
4:00am  -   -   -  9 9 mph 1015.9mb 65f 64f
3:50am 1.3ft 8s 4s 9 11 mph 1015.9mb 65f 64f
3:40am  -   -   -  9 11 mph 1015.8mb 65f 65f
3:30am  -   -   -  9 11 mph 1015.8mb 65f 65f
3:20am  -   -   -  9 11 mph 1015.8mb 65f 65f
3:10am  -   -   -  9 11 mph 1015.7mb 65f 65f
3:00am  -   -   -  9 11 mph 1015.7mb 65f 65f
2:50am 1.6ft 10s 4s 9 11 mph 1015.7mb 65f 65f
2:40am  -   -   -  9 9 mph 1015.7mb 65f 65f
2:30am  -   -   -  7 9 mph 1015.7mb 65f 65f
2:20am  -   -   -  7 9 mph 1015.7mb 65f 65f
2:10am  -   -   -  7 7 mph 1015.7mb 65f 65f
2:00am  -   -   -  7 9 mph 1015.7mb 65f 65f
1:50am 1.6ft 13s 4s 7 7 mph 1015.7mb 65f 65f
1:40am  -   -   -  7 9 mph 1015.8mb 65f 65f
1:30am  -   -   -  7 9 mph 1015.8mb 65f 65f
1:20am  -   -   -  9 11 mph 1015.9mb 65f 65f
1:10am  -   -   -  9 11 mph 1015.9mb 65f 65f
1:00am  -   -   -  9 11 mph 1016mb 65f 65f
12:50am 2ft 10s 4s 9 11 mph 1016mb 65f 65f
12:40am 2ft  -  4s 9 11 mph 1015.9mb 65f 65f
12:30am  -   -   -  9 11 mph 1016mb 65f 65f
12:20am  -   -   -  9 11 mph 1015.9mb 65f 65f
12:10am  -   -   -  9 11 mph 1016mb 65f 65f
12:00am  -   -   -  9 11 mph 1015.9mb 65f 65f
Mon 08/21 11:50pm 1.6ft 10s 4s 9 11 mph 1015.9mb 66f 65f
11:40pm 1.6ft  -  4s 9 13 mph 1016.1mb 66f 65f
11:30pm  -   -   -  11 11 mph 1016.1mb 66f 65f
11:20pm  -   -   -  11 13 mph 1016.1mb 66f 65f
11:10pm  -   -   -  11 13 mph 1016.1mb 66f 65f
11:00pm  -   -   -  11 11 mph 1016.1mb 66f 65f
10:50pm 1.6ft 10s 4s 9 13 mph 1016.2mb 66f 65f
10:40pm  -   -   -  9 11 mph 1016.2mb 66f 65f
10:30pm  -   -   -  11 13 mph 1016.1mb 66f 65f
10:20pm  -   -   -  11 13 mph 1016.1mb 66f 65f
10:10pm  -   -   -  11 13 mph 1016mb 66f 65f
10:00pm  -   -   -  11 13 mph 1015.9mb 66f 65f
9:50pm 2ft 9s 4s 11 13 mph 1015.9mb 66f 65f
9:40pm  -   -   -  13 16 mph 1015.8mb 66f 65f
9:30pm  -   -   -  13 16 mph 1015.7mb 66f 65f
9:20pm  -   -   -  13 16 mph 1015.6mb 66f 65f
9:10pm  -   -   -  13 16 mph 1015.6mb 67f 65f
9:00pm  -   -   -  13 16 mph 1015.6mb 67f 65f
8:50pm 1.6ft 9s 4s 13 16 mph 1015.5mb 67f 65f
8:40pm  -   -   -  13 16 mph 1015.5mb 67f 65f
8:30pm  -   -   -  13 16 mph 1015.5mb 67f 65f
8:20pm  -   -   -  13 16 mph 1015.5mb 67f 65f
8:10pm  -   -   -  13 18 mph 1015.5mb 67f 65f
8:00pm  -   -   -  13 16 mph 1015.5mb 67f 65f
7:50pm 1.6ft 8s 3s 16 18 mph 1015.5mb 67f 65f
7:40pm 1.6ft  -  3s 16 18 mph 1015.4mb 67f 65f
7:30pm  -   -   -  16 18 mph 1015.4mb 68f 65f
7:20pm  -   -   -  16 18 mph 1015.3mb 68f 65f
7:10pm  -   -   -  16 18 mph 1015.4mb 68f 65f
7:00pm  -   -   -  16 16 mph 1015.3mb 68f 65f
6:50pm 1.6ft 9s 4s 13 16 mph 1015.3mb 68f 66f
6:40pm  -   -   -  13 16 mph 1015.3mb 68f 66f
6:30pm  -   -   -  13 16 mph 1015.3mb 68f 66f
6:20pm  -   -   -  13 16 mph 1015.3mb - 66f
6:10pm  -   -   -  13 16 mph 1015.4mb - 66f
6:00pm  -   -   -  13 13 mph 1015.5mb 68f 66f
5:50pm 1.3ft 9s 5s 13 16 mph 1015.5mb 68f 66f
5:40pm  -   -   -  13 13 mph 1015.6mb 68f 66f
5:30pm  -   -   -  13 16 mph 1015.6mb 68f 67f
5:20pm  -   -   -  13 16 mph 1015.7mb - 67f
5:10pm  -   -   -  13 16 mph 1015.7mb - 67f
5:00pm  -   -   -  13 16 mph 1015.9mb 68f 67f
4:50pm 1.3ft 10s 6s 11 13 mph 1015.9mb 68f 67f
4:40pm  -   -   -  11 13 mph 1015.9mb 68f 67f
4:30pm  -   -   -  11 13 mph 1015.9mb 68f 67f
4:20pm  -   -   -  11 13 mph 1016.1mb 68f 68f
4:10pm  -   -   -  9 13 mph 1016.2mb 67f 68f
4:00pm  -   -   -  7 9 mph 1016.2mb 67f 68f
3:50pm 1.6ft 10s 7s 7 9 mph 1016.4mb 67f 68f
3:40pm 1.6ft  -  7s 9 9 mph 1016.4mb 68f 68f
3:30pm  -   -   -  7 9 mph 1016.5mb 68f 68f
3:20pm  -   -   -  7 9 mph 1016.7mb 68f 68f
3:10pm  -   -   -  7 9 mph 1016.7mb 68f 68f
3:00pm  -   -   -  7 9 mph 1016.8mb 67f 68f
2:50pm 1.6ft 10s 7s 7 9 mph 1016.9mb 67f 67f
2:40pm 1.6ft  -  7s 7 9 mph 1016.9mb 68f 67f
2:30pm  -   -   -  7 9 mph 1017mb 65f 68f
2:20pm  -   -   -  7 7 mph 1017mb 66f 68f
2:10pm  -   -   -  4 7 mph 1017.1mb 65f 68f
2:00pm  -   -   -  4 7 mph 1017.2mb 66f 68f
1:50pm 2ft 8s 6s 2 4 mph 1017.2mb 66f 68f
1:40pm 2ft  -  6s  -  2 mph 1017.2mb 66f 69f
1:30pm  -   -   -   -  2 mph 1017.2mb 66f 69f
1:20pm  -   -   -   -  2 mph 1017.2mb 66f 68f
1:10pm  -   -   -  2 4 mph 1017.2mb 66f 67f
1:00pm  -   -   -  4 4 mph 1017.3mb 66f 67f
12:50pm 1.6ft 10s 6s 4 4 mph 1017.3mb 66f 67f
12:40pm 1.6ft  -  6s 4 4 mph 1017.3mb 66f 67f
12:30pm  -   -   -  4 4 mph 1017.3mb 66f 67f
12:20pm  -   -   -  4 4 mph 1017.2mb 66f 67f
12:10pm  -   -   -  4 4 mph 1017.3mb 66f 67f
12:00pm  -   -   -  4 4 mph 1017.3mb 66f 67f
11:50am 1.6ft 11s 5s 4 4 mph 1017.5mb 66f 67f
11:40am  -   -   -  4 4 mph 1017.5mb 66f 67f
11:30am  -   -   -  4 4 mph 1017.4mb 66f 67f
11:20am  -   -   -  7 7 mph 1017.3mb 65f 67f
11:10am  -   -   -  7 7 mph 1017.4mb 65f 67f
11:00am  -   -   -  7 7 mph 1017.3mb 65f 66f
10:50am 1.3ft 10s 5s 7 7 mph 1017.2mb 65f 66f
10:40am  -   -   -  7 9 mph 1017.2mb 65f 66f
10:30am  -   -   -  7 7 mph 1017.2mb 65f 66f
10:20am  -   -   -  7 9 mph 1017.2mb 66f 66f
10:10am  -   -   -  7 7 mph 1017.2mb 66f 66f
10:00am  -   -   -  7 7 mph 1017.2mb 66f 66f
9:50am 1.3ft 10s 5s 7 7 mph 1017.1mb 66f 66f
9:40am  -   -   -  4 7 mph 1017.1mb 66f 66f
9:30am  -   -   -  7 9 mph 1017mb 65f 66f
9:20am  -   -   -  4 7 mph 1017mb 65f 66f
9:10am  -   -   -  4 7 mph 1016.9mb 65f 66f
9:00am  -   -   -  7 7 mph 1016.8mb 66f 66f
8:50am 1.3ft 11s 5s 7 7 mph 1016.7mb 66f 66f
8:40am  -   -   -  7 7 mph 1016.7mb 66f 66f
8:30am  -   -   -  7 9 mph 1016.7mb 66f 66f
8:20am  -   -   -  7 9 mph 1016.7mb 66f 66f
8:10am  -   -   -  7 9 mph 1016.5mb 66f 66f
8:00am  -   -   -  4 7 mph 1016.4mb 66f 66f
7:50am 1.3ft 8s 6s 7 7 mph 1016.4mb 66f 66f
7:40am 1.3ft  -  6s 4 7 mph 1016.3mb 66f 66f
7:30am  -   -   -  7 7 mph 1016.2mb 66f 66f
7:20am  -   -   -  7 7 mph 1016.1mb 66f 66f
7:10am  -   -   -  7 9 mph 1016mb 66f 66f
7:00am  -   -   -  7 9 mph 1015.8mb 66f 66f
6:50am 1.3ft 9s 5s 7 9 mph 1015.8mb 66f 66f
6:40am  -   -   -  4 7 mph 1015.8mb 66f 66f
6:30am  -   -   -  4 7 mph 1015.7mb 66f 66f
6:20am  -   -   -  4 7 mph 1015.7mb 66f 66f
6:10am  -   -   -  7 7 mph 1015.6mb 66f 66f
6:00am  -   -   -  7 7 mph 1015.5mb 65f 66f
5:50am 1.6ft 10s 5s 7 9 mph 1015.5mb 65f 66f
5:40am  -   -   -  7 7 mph 1015.4mb 66f 66f
5:30am  -   -   -  7 7 mph 1015.3mb 66f 66f
5:20am  -   -   -  7 7 mph 1015.3mb 66f -
5:10am  -   -   -  7 7 mph 1015.2mb 66f 66f
5:00am  -   -   -  7 9 mph 1015.2mb 66f 66f
4:50am 1.6ft 8s 6s 7 9 mph 1015.1mb 66f 66f
4:40am 1.6ft  -  6s 9 11 mph 1015.2mb 66f 66f
4:30am  -   -   -  11 16 mph 1015.2mb 66f 66f
4:20am  -   -   -  9 11 mph 1015.2mb 66f 66f
4:10am  -   -   -  9 11 mph 1015.2mb 66f 66f
4:00am  -   -   -  9 11 mph 1015.2mb 66f 66f
3:50am 1.6ft 8s 7s 9 11 mph 1015.3mb 66f 65f
3:40am  -   -   -  7 9 mph 1015.3mb 66f 65f
3:30am  -   -   -  7 9 mph 1015.3mb 66f 65f
3:20am  -   -   -  7 7 mph 1015.2mb 66f 65f
3:10am  -   -   -  7 7 mph 1015.2mb 66f 65f
3:00am  -   -   -  7 7 mph 1015.2mb 66f 65f
2:50am 2.5ft 9s 7s 4 9 mph 1015.2mb 66f 65f
2:40am  -   -   -  7 7 mph 1015.1mb 66f 65f
2:30am  -   -   -  4 7 mph 1015.1mb 66f 65f
2:20am  -   -   -  4 7 mph 1015.1mb 66f 65f
2:10am  -   -   -  7 7 mph 1015.1mb 65f 65f
2:00am  -   -   -  7 9 mph 1015.1mb 65f 65f
1:50am 2ft 9s 7s 7 7 mph 1015.1mb 65f 65f
1:40am 2ft  -  7s 7 9 mph 1015.1mb 65f 65f
1:30am  -   -   -  9 11 mph 1015.2mb 65f 65f
1:20am  -   -   -  9 13 mph 1015.3mb 65f 65f
1:10am  -   -   -  4 7 mph 1015.3mb 65f 65f
1:00am  -   -   -  4 7 mph 1015.2mb 65f 65f
12:50am 2ft 9s 7s 4 4 mph 1015.1mb 65f 65f
12:40am  -   -   -  2 4 mph 1015mb 65f 64f
12:30am  -   -   -  2 4 mph 1015mb 65f 64f
12:20am  -   -   -  2 4 mph 1015mb 65f 64f
12:10am  -   -   -  2 4 mph 1015.1mb 65f 64f
12:00am  -   -   -  2 4 mph 1015.1mb 65f 64f
Sun 08/20 11:50pm 2ft 10s 6s 2 4 mph 1015.1mb 65f 64f
11:40pm  -   -   -  4 4 mph 1015mb 65f 64f
11:30pm  -   -   -  4 4 mph 1015mb 65f 64f
11:20pm  -   -   -  4 4 mph 1015mb 65f 64f
11:10pm  -   -   -  4 4 mph 1014.9mb 64f 64f
11:00pm  -   -   -  4 7 mph 1014.8mb 64f 64f
10:50pm 2ft 9s 7s 4 7 mph 1014.7mb 65f 64f
10:40pm 2ft  -  7s 4 7 mph 1014.7mb 65f 64f
10:30pm  -   -   -  4 4 mph 1014.6mb 65f 64f
10:20pm  -   -   -  4 7 mph 1014.5mb 65f 64f
10:10pm  -   -   -  7 7 mph 1014.4mb 64f 64f
10:00pm  -   -   -  7 7 mph 1014.4mb 65f 64f
9:50pm 1.6ft 10s 7s 7 9 mph 1014.3mb 65f 64f
9:40pm 1.6ft  -  7s 7 9 mph 1014.2mb 65f 64f
9:30pm  -   -   -  7 9 mph 1014mb 65f 64f
9:20pm  -   -   -  7 9 mph 1014mb 65f 64f
9:10pm  -   -   -  7 7 mph 1013.9mb 65f 64f
9:00pm  -   -   -  7 7 mph 1013.8mb 65f 64f
8:50pm 1.6ft 10s 6s 7 7 mph 1013.7mb 65f 64f
8:40pm 1.6ft  -  6s 7 9 mph 1013.4mb 65f 64f
8:30pm  -   -   -  7 7 mph 1013.4mb 65f 64f
8:20pm  -   -   -  7 7 mph 1013.2mb 65f 64f
8:10pm  -   -   -  7 7 mph 1013.1mb 65f 64f
8:00pm  -   -   -  7 9 mph 1013mb 65f 64f
7:50pm 1.6ft 11s 6s 7 9 mph 1012.9mb 65f 64f
7:40pm 1.6ft  -  6s 9 11 mph 1012.8mb 65f 64f
7:30pm  -   -   -  9 9 mph 1012.7mb 65f 64f
7:20pm  -   -   -  9 11 mph 1012.7mb 65f 64f
7:10pm  -   -   -  9 11 mph 1012.6mb 65f 65f
7:00pm  -   -   -  9 11 mph 1012.6mb 65f 65f
6:50pm 1.3ft 10s 6s 9 11 mph 1012.4mb 65f 65f
6:20pm  -   -   -  9 11 mph 1012.4mb 65f 65f
6:10pm  -   -   -  9 11 mph 1012.6mb 65f 65f
6:00pm  -   -   -  9 11 mph 1012.6mb 65f 65f
5:50pm 1.6ft 8s 6s 9 11 mph 1012.6mb 65f 65f
5:40pm  -   -   -  9 11 mph 1012.7mb 65f 65f
5:30pm  -   -   -  9 11 mph 1012.8mb 65f 65f
5:20pm  -   -   -  9 11 mph 1012.7mb 65f 65f
5:10pm  -   -   -  9 11 mph 1012.8mb 65f 65f
5:00pm  -   -   -  9 11 mph 1012.8mb 65f 66f
4:50pm 1.6ft 11s 7s 9 9 mph 1012.8mb 65f 66f
4:40pm 1.6ft  -  7s 9 9 mph 1012.8mb 65f 66f
4:30pm  -   -   -  9 9 mph 1012.8mb 66f 66f
4:20pm  -   -   -  9 9 mph 1013mb 66f 66f
4:10pm  -   -   -  7 9 mph 1013.1mb 66f 65f
4:00pm  -   -   -  9 9 mph 1013.1mb 65f 65f
3:50pm 1.6ft 10s 6s 9 9 mph 1013.2mb 65f 65f
3:40pm  -   -   -  9 11 mph 1013.3mb 65f 65f
3:30pm  -   -   -  9 11 mph 1013.4mb - 65f
3:20pm  -   -   -  9 11 mph 1013.5mb 66f 65f
3:10pm  -   -   -  9 11 mph 1013.5mb 66f 65f
3:00pm  -   -   -  9 11 mph 1013.7mb 66f 65f
2:50pm 1.6ft 10s 7s 9 11 mph 1013.7mb 67f 65f
2:40pm  -   -   -  9 11 mph 1013.9mb 68f 65f
2:30pm  -   -   -  9 9 mph 1013.9mb 68f 66f
2:20pm  -   -   -  7 9 mph 1014.2mb 68f 66f
2:10pm  -   -   -  7 9 mph 1014.3mb 67f 66f
2:00pm  -   -   -  7 9 mph 1014.4mb 66f 66f
1:50pm 1.6ft 8s 7s 7 9 mph 1014.4mb 66f 66f
1:40pm  -   -   -  2 4 mph 1014.5mb 66f 67f
1:30pm  -   -   -  2 2 mph 1014.5mb 66f 67f
1:20pm  -   -   -  2 4 mph 1014.5mb 66f 67f
1:10pm  -   -   -  2 4 mph 1014.6mb 66f 67f
1:00pm  -   -   -  4 7 mph 1014.6mb 66f 67f
12:50pm 2ft 11s 7s 4 7 mph 1014.7mb 66f 66f
12:40pm  -   -   -  4 7 mph 1014.8mb 66f 66f
12:30pm  -   -   -  4 7 mph 1014.9mb 66f 66f
12:20pm  -   -   -  4 7 mph 1014.9mb 66f 66f
12:10pm  -   -   -  7 7 mph 1014.9mb 65f -
12:00pm  -   -   -  7 9 mph 1015mb 65f 66f
11:50am 1.6ft 10s 7s 7 9 mph 1015mb 65f 66f
11:40am 1.6ft  -  7s 9 11 mph 1015mb 65f 66f
11:30am  -   -   -  9 11 mph 1015.1mb 65f 66f
11:20am  -   -   -  9 9 mph 1015.1mb 65f 66f
11:10am  -   -   -  7 9 mph 1015.2mb 65f 66f
11:00am  -   -   -  7 9 mph 1015.1mb 65f 66f
10:50am 1.6ft 10s 6s 4 7 mph 1015.1mb 65f 66f
10:40am 1.6ft  -  6s 7 9 mph 1015.1mb 65f 65f
10:30am  -   -   -  9 11 mph 1015.1mb 65f 65f
10:20am  -   -   -  7 9 mph 1015mb 65f 65f
10:10am  -   -   -  7 9 mph 1015mb 65f 65f
10:00am  -   -   -  7 9 mph 1015mb 65f 65f
9:50am 2ft 8s 7s 7 9 mph 1015.1mb 65f 65f
9:40am 2ft  -  7s 7 9 mph 1014.9mb 65f 65f
9:30am  -   -   -  9 9 mph 1015mb 65f 65f
9:20am  -   -   -  7 9 mph 1014.9mb 65f 65f
9:10am  -   -   -  7 9 mph 1014.8mb 65f 65f
9:00am  -   -   -  9 11 mph 1014.8mb 65f 65f
8:50am 2ft 10s 7s 7 9 mph 1014.8mb 65f 64f
8:40am 2ft  -  7s 7 9 mph 1014.9mb 65f 65f
8:30am  -   -   -  7 9 mph 1014.7mb 65f 65f
8:20am  -   -   -  7 7 mph 1014.7mb 65f 64f
8:10am  -   -   -  9 11 mph 1014.6mb 65f 64f
8:00am  -   -   -  9 11 mph 1014.5mb 65f 64f
7:50am 2.5ft 10s 8s 9 11 mph 1014.4mb 65f 64f
7:40am 2.5ft  -  8s 9 13 mph 1014.4mb 65f 64f
7:30am  -   -   -  7 11 mph 1014.4mb 65f 64f
7:20am  -   -   -  7 9 mph 1014.4mb 65f 64f
7:10am  -   -   -  7 9 mph 1014.3mb 65f 64f
7:00am  -   -   -  9 11 mph 1014.3mb 65f 64f
6:50am 2.5ft 10s 8s 9 11 mph 1014.2mb 65f 64f
6:40am 2.5ft  -  8s 7 9 mph 1014.2mb 65f 64f
6:30am  -   -   -  7 9 mph 1014.2mb 65f 64f
6:20am  -   -   -  4 7 mph 1014.1mb 65f 64f
6:10am  -   -   -  2 4 mph 1014mb 65f 64f
6:00am  -   -   -  4 9 mph 1014mb 65f 64f
5:50am 2.5ft 11s 8s 7 9 mph 1014mb 65f 64f
5:40am 2.5ft  -  8s 7 7 mph 1014mb 65f 64f
5:30am  -   -   -  4 9 mph 1013.9mb 66f 64f
5:20am  -   -   -  4 9 mph 1013.9mb 66f 64f
5:10am  -   -   -  4 9 mph 1013.9mb 66f 64f
5:00am  -   -   -  7 9 mph 1013.9mb 66f 64f
4:50am 2.5ft 10s 8s 7 7 mph 1013.9mb 66f 64f
4:40am  -   -   -  7 9 mph 1013.9mb 66f 64f
4:30am  -   -   -  4 7 mph 1013.9mb 66f 64f
4:20am  -   -   -  2 4 mph 1013.9mb 66f 64f
4:10am  -   -   -  2 4 mph 1013.9mb 66f 63f
4:00am  -   -   -  4 7 mph 1013.8mb 65f 63f
3:50am 2ft 10s 7s 4 7 mph 1013.8mb 65f 63f
3:40am 2ft  -  7s 2 4 mph 1013.9mb 63f 63f
3:30am  -   -   -   -  2 mph 1013.9mb 63f 63f
3:20am  -   -   -   -  2 mph 1013.9mb 63f 63f
3:10am  -   -   -  2 2 mph 1013.9mb 63f 63f
3:00am  -   -   -  4 7 mph 1014mb 63f 63f
2:50am 2.5ft 9s 7s 2 4 mph 1014mb 63f 63f
2:40am 2.5ft  -  7s 2 4 mph 1014mb 63f 63f
2:30am  -   -   -  2 4 mph 1014.2mb 63f 63f
2:20am  -   -   -  2 4 mph 1014.2mb 63f 63f
2:10am  -   -   -  2 4 mph 1014.2mb 63f 63f
2:00am  -   -   -  2 4 mph 1014.2mb 63f 62f
1:50am 2.5ft 10s 7s  -  2 mph 1014.2mb 63f 63f
1:40am  -   -   -   -  2 mph 1014.3mb 63f 63f
1:30am  -   -   -   -  2 mph 1014.4mb 63f 63f
1:20am  -   -   -   -  2 mph 1014.5mb - 63f
1:10am  -   -   -  2 2 mph 1014.5mb 63f 63f
1:00am  -   -   -  2 2 mph 1014.5mb 63f 63f
12:50am 2.5ft 10s 6s 2 2 mph 1014.6mb 63f 63f
12:40am 2.5ft  -  6s 2 2 mph 1014.5mb 64f 63f
12:30am  -   -   -  2 4 mph 1014.5mb 64f 63f
12:20am  -   -   -  2 4 mph 1014.5mb 64f 63f
12:10am  -   -   -  4 7 mph 1014.6mb 63f 62f
12:00am  -   -   -  4 4 mph 1014.5mb 63f 62f
Sat 08/19 11:50pm 2ft 11s 5s 4 7 mph 1014.5mb 63f 62f
11:40pm  -   -   -  4 9 mph 1014.5mb 63f 62f
11:30pm  -   -   -  7 9 mph 1014.4mb 62f 62f
11:20pm  -   -   -  7 9 mph 1014.4mb 63f 62f
11:10pm  -   -   -  7 9 mph 1014.3mb 63f 62f
11:00pm  -   -   -  7 9 mph 1014.2mb 63f 62f
10:50pm 2ft 8s 5s 9 9 mph 1014.2mb 63f 62f
10:30pm  -   -   -  9 9 mph 1014.2mb 63f 62f
10:20pm  -   -   -  9 11 mph 1014.2mb 63f 62f
10:10pm  -   -   -  9 11 mph 1014mb 63f 62f
10:00pm  -   -   -  9 11 mph 1013.9mb 63f 62f
9:50pm 2.5ft 10s 6s 9 13 mph 1013.9mb 63f 62f
9:40pm  -   -   -  9 11 mph 1013.9mb 64f 63f
9:30pm  -   -   -  11 11 mph 1013.9mb 64f 63f
9:20pm  -   -   -  11 13 mph 1013.7mb 64f 63f
9:10pm  -   -   -  11 11 mph 1013.7mb 64f 63f
9:00pm  -   -   -  11 13 mph 1013.6mb 64f 63f
8:50pm 2.5ft 10s 5s 11 13 mph 1013.6mb 64f 63f
8:40pm 2.5ft  -  5s 11 13 mph 1013.4mb 64f 63f
8:30pm  -   -   -  11 13 mph 1013.3mb 64f 63f
8:20pm  -   -   -  11 13 mph 1013.2mb 65f 63f
8:10pm  -   -   -  11 13 mph 1013.1mb 65f 63f
8:00pm  -   -   -  11 13 mph 1013mb 65f 63f
7:50pm 2.5ft 10s 5s 11 16 mph 1012.9mb 65f 63f
7:40pm  -   -   -  13 16 mph 1012.8mb 66f 63f
7:30pm  -   -   -  11 16 mph 1012.9mb 66f 63f
7:20pm  -   -   -  11 16 mph 1012.9mb 66f 63f
7:10pm  -   -   -  13 16 mph 1012.8mb 67f 63f
7:00pm  -   -   -  13 16 mph 1012.8mb 67f 63f
6:50pm 2ft 10s 5s 13 16 mph 1012.6mb 67f 64f
6:40pm 2ft  -  5s 13 16 mph 1012.8mb 67f 64f
6:30pm  -   -   -  13 16 mph 1012.8mb 67f 64f
6:20pm  -   -   -  11 13 mph 1012.8mb 67f 64f
6:10pm  -   -   -  11 13 mph 1012.9mb 67f 64f
6:00pm  -   -   -  11 13 mph 1013mb 67f 64f
5:50pm 1.6ft 11s 5s 11 13 mph 1013mb 67f 64f
5:40pm  -   -   -  11 13 mph 1013.2mb 67f 64f
5:30pm  -   -   -  11 13 mph 1013.1mb 68f -
5:20pm  -   -   -  11 13 mph 1013.2mb 67f 64f
5:10pm  -   -   -  11 13 mph 1013.3mb 67f 64f
5:00pm  -   -   -  11 11 mph 1013.3mb 68f 64f
4:50pm 1.6ft 11s 6s 9 11 mph 1013.5mb 67f 64f
4:40pm 1.6ft  -  6s 11 11 mph 1013.6mb 67f 64f
4:30pm  -   -   -  11 13 mph 1013.7mb 67f 64f
4:20pm  -   -   -  11 11 mph 1013.8mb 67f 64f
4:10pm  -   -   -  9 11 mph 1014mb 67f 64f
4:00pm  -   -   -  9 11 mph 1014mb 68f 64f
3:50pm 1.6ft 9s 7s 9 11 mph 1014.1mb 67f 64f